Погода в Инине

Россия / Калужская область     55°13′55″N   36°56′15″E
темп.,
°C
ветер,
м/с
пор.,
м/с
влажн.,
%
обл.,
%
осадки,
мм/ч
давл.,
гПа
погр.,
м
16 июня, ср
ср1600:00+15ссз23950 0.1 101047
03:00+14сз25960 0.1 101188
06:00+15ссз38940 0.0 1011233
09:00+20с4660100 0.0 1012737
12:00+23ссз455567 0.1 10131663
15:00+24ссз45382 0.1 10142220
18:00+22с45460 0.0 10151215
21:00+15с3870100 0.0 1017148
17 июня, чт
чт1700:00+13ссв237422 0.0 102047
03:00+11с22795 0.0 102123
06:00+14ссв25745 0.0 1023139
09:00+19ссв35426 0.0 1024781
12:00+22св34355 0.0 10241594
15:00+24ссв23335 0.0 10241996
18:00+23ссв23460 0.0 10241431
21:00+16с117051 0.0 102511
18 июня, пт
пт1800:00+14ююв11765 0.0 102610
03:00+12зюз11815 0.0 102710
06:00+15з11765 0.0 102844
09:00+22зюз11535 0.0 1028509
12:00+25юз114112 0.0 10271667
15:00+26зюз22393 0.0 10271974
18:00+25зюз23535 0.0 1026781
21:00+18ююз24855 0.0 102783
19 июня, сб
сб1900:00+15юз239154 0.0 102856
03:00+14юз23965 0.0 102960
06:00+16юз25852 0.0 1029146
09:00+22зюз23625 0.0 1029665
12:00+25юз234548 0.0 10271420
15:00+27юз334195 0.0 10261701
18:00+25зюз235364 0.0 10261087
21:00+19ююз258489 0.0 102679
20 июня, вс
вс2000:00+16юз229399 0.0 102741
03:00+14юз2296100 0.0 102738
06:00+17юз24870 0.0 1027116
09:00+22юз23620 0.0 1026718
12:00+26юз23455 0.0 10251514
15:00+28юз23406 0.0 10231879
18:00+26юз235361 0.0 10231001
21:00+19ююз228540 0.0 102323